User: anonymous   Login
Location: The Saddle
(36.8333°N, 80.3417°W)
Time: 05:04:12
(UTC-05:00)
Language:

Tiros 1 despin weight - Orbit

View from above orbital plane
View from above orbital plane
View from above satellite
View from above satellite

Ground track
Ground track

The orbit data is extracted from the following two-line orbital elements,

1 00115U 60002D   22018.67342245  .00000829  00000-0  12432-3 0  9995
2 00115  48.1682   3.4961 0035153 286.4681  73.2370 14.83986312277972
Epoch (UTC): 18 January 2022 16:09:43
Eccentricity: 0.0035153
inclination: 48.1682°
perigee height: 592 km
apogee height: 641 km
right ascension of ascending node: 3.4961°
argument of perigee: 286.4681°
revolutions per day: 14.83986312
mean anomaly at epoch: 73.2370°
orbit number at epoch: 27797

The dashed part of the orbit path shows where the satellite is in the earth's shadow,  

DLR